Regional Weather Roundup
Issued by NWS Sterling, VA

Home | Current Version | Previous Version | Text Only | Print | Product List | Glossary Off
Versions: 1 2 3 4 5 6 7 8 9 10 11 12 13 14 15 16 17 18 19 20 21 22 23 24 25 26 27 28

000
ASUS41 KLWX 021110
RWRLWX

REGIONAL WEATHER ROUNDUP
NATIONAL WEATHER SERVICE BALTIMORE MD/WASHINGTON DC
600 AM EST FRI DEC 02 2016

Note: "FAIR" indicates few or no clouds below 12,000 feet
with no significant weather and/or obstructions to visibility.
 TC=TEMPERATURE CELSIUS

 * =Non NWS site. Station does not report precipitation (e.g. rain,
    snow, etc.), thunder, or fog.

DCZ001-MDZ009-015-VAZ040>042-051-053>054-021200-
WASHINGTON METRO

CITY           SKY/WX    TMP DP  RH WIND       PRES   REMARKS
WASHINGTON NAT MOCLDY    45  27  49 W6        30.03R
DULLES         PTCLDY    43  26  51 NW7       30.02R
ANDREWS AFB    PTCLDY    42  26  52 W9        30.01R
FT BELVOIR     PTCLDY    33  29  83 CALM      30.03R
QUANTICO       CLEAR     35  31  85 NW8       30.05R WCI  29
COLLEGE PARK*  PTCLDY    43  27  52 W5G17     30.02R
LEESBURG*      CLOUDY    43  32  65 NW7       30.04R
MANASSAS*      PTCLDY    36  34  93 CALM      30.04R
GAITHERSBURG*  MOCLDY    39  23  52 W10       30.05R

$$

MDZ006>007-011-014-021200-
BALTIMORE METRO

CITY           SKY/WX    TMP DP  RH WIND       PRES   REMARKS
BWI AIRPORT    MOCLDY    42  26  53 W12       30.00R
MD SCIENCE CTR   N/A     44  24  45 MISG      29.99S
MARTIN STATE   PTCLDY    43  28  56 W12       30.00
ANNAPOLIS      PTCLDY    46  26  45 VRB5      30.01R
FORT MEADE*    PTCLDY    39  27  60 W6        30.03R

$$

MDZ012-015-019>023-021200-
MARYLAND EASTERN SHORE

CITY           SKY/WX    TMP DP  RH WIND       PRES   REMARKS
OCEAN CITY     CLEAR     34  30  85 W5        30.01R
SALISBURY      CLEAR     31  29  92 CALM      30.01S
BAY BRIDGE AP* PTCLDY    45  27  49 W10G20    30.01R
CAMBRIDGE*     CLEAR     43  27  52 NW12G18   30.01R
EASTON*        CLEAR     45  27  49 NW10      30.04R

$$

MDZ017>025-021200-
SOUTHERN MARYLAND

CITY           SKY/WX    TMP DP  RH WIND       PRES   REMARKS
PATUXENT RIVER PTCLDY    31  28  89 W5        30.03R
ST INIGOES     CLEAR     33  31  92 CALM      30.03R
LEONARDTOWN*   CLEAR     32  30  93 CALM      30.04R

$$

MDZ003>005-021200-
NORTH CENTRAL MARYLAND

CITY           SKY/WX    TMP DP  RH WIND       PRES   REMARKS
FREDERICK*     CLOUDY    43  28  56 W6        30.05R
HAGERSTOWN APT CLOUDY    42  25  50 W7        30.00R
WESTMINSTER*   MOCLDY    37  25  60 W7        29.97S

$$

MDZ501>502-021200-
WESTERN MARYLAND

CITY           SKY/WX    TMP DP  RH WIND       PRES   REMARKS
OAKLAND*       CLOUDY    28  25  86 W14G20    29.94R WCI  17
CUMBERLAND*    NOT AVBL

$$

VAZ025>031-021200-
SHENANDOAH VALLEY

CITY           SKY/WX    TMP DP  RH WIND       PRES   REMARKS
WINCHESTER*    PTCLDY    39  25  56 NW9       30.02R
FRONT ROYAL*   CLOUDY    43  28  56 NW8G16    30.01S
LURAY*         CLOUDY    43  30  61 SW3       30.02R
NEW MARKET*    PTSUNNY   38  29  70 CALM      30.02R
STAUNTON*      PTCLDY    34  30  84 CALM      30.04R
WAYNESBORO*    FAIR      38  26  63 W5        30.02R

$$

WVZ021-048>050-054>055-021200-
EASTERN WEST VIRGINIA PANHANDLE

CITY           SKY/WX    TMP DP  RH WIND       PRES   REMARKS
MARTINSBURG    CLOUDY    40  26  57 W9        30.01R
PETERSBURG*    CLOUDY    43  29  59 W3        30.04R

$$

VAZ036>039-050-021200-
CENTRAL FOOTHILLS

CITY           SKY/WX    TMP DP  RH WIND       PRES   REMARKS
CHARLOTTESVILL PTCLDY    36  28  73 CALM      30.03R
CULPEPER*      MOCLDY    31  29  94 CALM      30.05R
ORANGE*          N/A     30  30 100 CALM      30.05R
GORDONSVILLE*  FAIR      29  29  99 CALM      30.03R
WARRENTON*     FAIR      30  25  82 CALM      30.03R

$$

VAZ055>057-021200-
NORTH AND CENTRAL PIEDMONT

CITY           SKY/WX    TMP DP  RH WIND       PRES   REMARKS
FREDERICKSBRG* CLEAR     31  31 100 CALM      30.04R
STAFFORD*      PTCLDY    28  28 100 CALM      30.08R

$$

NCZ024-NYZ072-PAZ021-071-VAZ022-071-021200-
OTHER REGIONAL OBSERVATIONS

CITY           SKY/WX    TMP DP  RH WIND       PRES   REMARKS
NEW YORK CITY  PTCLDY    41  27  57 W5        29.91R
PHILADELPHIA   PTCLDY    40  29  64 SW9       29.97R
PITTSBURGH     PTCLDY    36  29  75 SW8       30.00R
ROANOKE        CLEAR     42  27  55 NW13G23   30.08R
RICHMOND       CLEAR     34  29  82 CALM      30.05R
RALEIGH        PTCLDY    34  30  85 CALM      30.09R

$$

ANZ530>537-021200-
MARINE OBSERVATIONS

STATION/POSITION TIME  TEMP    WIND        PRES
                       AIR SEA DIR/SP/G
                 (UTC) (F)     (DEG/KT/KT) (MB)
THOMAS PT LIGHT  1100   45 51  300/ 15/ 17   N/A
BALT KEY BRIDGE  1048   45     260/ 17/ 20 1015.3S
COVE POINT       1048   43     320/  6/ 10 1017.3R
LEWISETTA        1048   41 53  250/  5/  6 1016.8R
SOLOMONS ISLAND  1042   42 52  290/  1/  3   N/A
PINEY POINT      1048          350/  6/  7   N/A

$$





USA.gov is the U.S. government's official web portal to all federal, state and local government web resources and services.